Weather History for Ramona, CA

Change the Weather History Date:

Thursday, November 3, 2011

  Actual Average Record
Temperature  
Mean Temperature 59 °F 59 °F  
Max Temperature 78 °F 75 °F 93 °F (2010)
Min Temperature 39 °F 43 °F 33 °F (2004)
Degree Days  
Heating Degree Days 6 6  
Month to date heating degree days 18 18  
Since 1 July heating degree days 117 137  
Cooling Degree Days 0 1  
Month to date cooling degree days 0 3  
Year to date cooling degree days 726 847  
Growing Degree Days 8 (Base 50)    
Moisture  
Dew Point 37 °F    
Average Humidity 43    
Maximum Humidity 72    
Minimum Humidity 14    
Precipitation  
Precipitation 0.00 in 0.05 in 0.06 in (2003)
Month to date precipitation 0.00 0.19  
Year to date precipitation 10.12 12.81  
Since 1 July precipitation 0.74 1.48  
Snow  
Snow 0.00 in - - ()
Month to date snowfall 0.0  
Year to date snowfall 0.0  
Since 1 July snowfall 0.0  
Snow Depth 0.00 in    
Sea Level Pressure  
Sea Level Pressure 29.96 in    
Wind  
Wind Speed 5 mph (SW)    
Max Wind Speed 15 mph    
Max Gust Speed 17 mph    
Visibility 10 miles    
Events      
T = Trace of Precipitation, MM = Missing Value Source: NWS Daily Summary

Daily Weather History Graph

Daily Weather History Graph

Search for Another Location

Airport:

Trip Planner

Search our weather history database for the weather conditions in past years. The results will help you decide how hot, cold, wet, or windy it might be!

Date:

Astronomy

Nov. 03, 2011 Rise Set
Actual Time 7:07 AM PDT 5:54 PM PDT
Civil Twilight 6:41 AM PDT 6:20 PM PDT
Nautical Twilight 6:12 AM PDT 6:49 PM PDT
Astronomical Twilight 5:43 AM PDT 7:18 PM PDT
Moon 2:02 PM PDT (11/3) 12:44 AM PDT (11/3)
Length of Visible Light 11h 38m
Length of Day
10h 47m
First Quarter, 61% of the Moon is Illuminated
Nov 3
First Quarter
Nov 10
Full
Nov 18
Last Quarter
Nov 24
New
Dec 2
First Quarter

Hourly Weather History & Observations

Time (PDT) Temp. Windchill Dew Point Humidity Pressure Visibility Wind Dir Wind Speed Gust Speed Precip Events Conditions
12:53 AM 45.0 °F 42.6 °F 16.0 °F 31% 30.05 in 10.0 mi ESE 4.6 mph - N/A   Clear
1:53 AM 46.0 °F 43.9 °F 17.1 °F 31% 30.04 in 10.0 mi SE 4.6 mph - N/A   Clear
2:53 AM 44.1 °F - 21.0 °F 40% 30.03 in 10.0 mi Calm Calm - N/A   Clear
3:53 AM 44.1 °F - 21.0 °F 40% 30.02 in 10.0 mi Calm Calm - N/A   Clear
4:53 AM 41.0 °F 38.0 °F 23.0 °F 49% 30.02 in 10.0 mi ESE 4.6 mph - N/A   Clear
5:53 AM 43.0 °F - 21.9 °F 43% 30.01 in 10.0 mi Calm Calm - N/A   Clear
6:53 AM 41.0 °F 39.0 °F 24.1 °F 51% 30.03 in 10.0 mi ESE 3.5 mph - N/A   Clear
7:53 AM 48.9 °F - 24.1 °F 38% 30.02 in 10.0 mi Calm Calm - N/A   Clear
8:53 AM 62.1 °F - 24.1 °F 23% 30.01 in 10.0 mi Calm Calm - N/A   Clear
9:53 AM 71.1 °F - 19.0 °F 14% 30.01 in 10.0 mi Calm Calm - N/A   Clear
10:53 AM 72.0 °F - 21.0 °F 15% 30.00 in 10.0 mi WNW 8.1 mph - N/A   Clear
11:53 AM 75.0 °F - 23.0 °F 14% 29.97 in 10.0 mi WNW 5.8 mph - N/A   Clear
12:53 PM 75.9 °F - 25.0 °F 15% 29.94 in 10.0 mi West 10.4 mph - N/A   Clear
1:53 PM 75.0 °F - 45.0 °F 34% 29.92 in 10.0 mi West 10.4 mph - N/A   Clear
2:53 PM 73.0 °F - 48.9 °F 42% 29.91 in 10.0 mi West 9.2 mph - N/A   Clear
3:53 PM 71.1 °F - 48.9 °F 45% 29.90 in 10.0 mi SSW 4.6 mph - N/A   Scattered Clouds
4:53 PM 63.0 °F - 54.0 °F 72% 29.91 in 10.0 mi West 11.5 mph - N/A   Clear
5:53 PM 57.0 °F - 53.1 °F 87% 29.92 in 9.0 mi West 8.1 mph - N/A   Scattered Clouds
6:53 PM 54.0 °F - 51.1 °F 90% 29.94 in 10.0 mi NNW 5.8 mph - N/A   Mostly Cloudy
7:53 PM 53.1 °F - 52.0 °F 96% 29.93 in 7.0 mi Calm Calm - N/A   Mostly Cloudy
8:38 PM 55.4 °F - 51.8 °F 88% 29.95 in 9.0 mi WNW 4.6 mph - N/A   Overcast
8:53 PM 55.0 °F - 52.0 °F 89% 29.93 in 9.0 mi West 3.5 mph - N/A   Overcast
9:53 PM 55.0 °F - 50.0 °F 83% 29.93 in 10.0 mi SSW 4.6 mph - N/A   Overcast
10:43 PM 53.6 °F - 48.2 °F 82% 29.95 in 10.0 mi SE 3.5 mph - N/A   Mostly Cloudy
10:53 PM 55.0 °F - 48.9 °F 80% 29.91 in 10.0 mi SE 4.6 mph - N/A   Overcast
11:06 PM 55.4 °F - 48.2 °F 77% 29.94 in 10.0 mi ESE 3.5 mph - N/A   Overcast
11:38 PM 55.4 °F - 48.2 °F 77% 29.92 in 10.0 mi SE 5.8 mph - N/A   Overcast
11:53 PM 55.0 °F - 50.0 °F 83% 29.89 in 10.0 mi SE 3.5 mph - N/A   Overcast